Location: Hawks Ness
(60.2333°N, 1.1667°W)
Time: 18:38:59
(UTC+00:00)

PSLV R/B - Pass Details

Date: 22 October 2019
Orbit: 593 x 630 km, 97.9° (Epoch: 19 November)

Event Time Altitude Azimuth Distance (km) Brightness Sun altitude
Rises 05:23:45 0° 14° (NNE) 2,883 7.2 -12.6°
Reaches altitude 10° 05:26:06 10° 5° (N) 1,969 6.2 -12.4°
Maximum altitude 05:29:56 33° 301° (WNW) 1,017 4.2 -11.9°
Enters shadow 05:33:25 12° 239° (WSW) 1,832 5.5 -11.5°
